Location: ??????
(38.3184°N, 23.6932°E)
Time: 02:15:08
(UTC+00:00)

Genesis I - Pass Details

Date: 16 October 2021
Orbit: 469 x 548 km, 64.5° (Epoch: 04 December)

Event Time Altitude Azimuth Distance (km) Brightness Sun altitude
Rises 17:32:46 0° 323° (NW) 2,721 7.5 -21.7°
Reaches altitude 10° 17:35:02 10° 318° (NW) 1,825 6.6 -22.2°
Maximum altitude 17:39:00 49° 243° (WSW) 712 4.1 -22.9°
Enters shadow 17:40:30 32° 189° (S) 951 4.5 -23.2°
